contact:dominique.lefevre@mio.osupytheas.fr, maurice.libes@osupytheas.fr, didier.mallarino@osupytheas.fr
Project:EMSO http://www.emso-fr.org/EMSO-France
Depth: 2436.0 m
Title:EMSO Ligure Ouest : Data MII capteur AQUADOPP
Date,Latitude,Longitude,X_East,Y_North,Z_Up,Amplitude_X,Amplitude_Y,Amplitude_Z,Batterie,SoundSpeed,Heading,Pitch,Roll,Pressure,TIS,Speed,Direction
, degrees North, degrees East, m.s-1, m.s-1,m.s-1, 1, 1, 1, Volt, m.s-1, degree, degree, degree, dbar, degree_C, m.s-1, degree
2022-08-04T00:04:03,42.805,6.029,-0.052,0.016,-0.031,103.0,103.0,101.0,13.4,1505.2,321.7,-0.8,1.8,2471.107,13.28,0.054,287.1
2022-08-04T00:07:03,42.805,6.029,-0.058,0.021,-0.017,102.0,102.0,101.0,13.4,1505.2,324.8,-0.7,1.8,2471.051,13.28,0.061,289.9
2022-08-04T00:10:03,42.805,6.029,-0.039,0.013,-0.059,102.0,102.0,100.0,13.3,1505.2,329.3,-0.8,1.9,2471.091,13.28,0.041,288.4
2022-08-04T00:13:03,42.805,6.029,-0.061,0.008,-0.049,101.0,102.0,101.0,13.4,1505.2,327.0,-0.8,1.8,2471.083,13.28,0.061,277.5
2022-08-04T00:16:03,42.805,6.029,-0.051,-0.001,-0.03,102.0,102.0,100.0,13.4,1505.2,323.9,-0.8,1.8,2471.056,13.28,0.051,268.9
2022-08-04T00:19:03,42.805,6.029,-0.048,0.007,-0.033,102.0,102.0,101.0,13.3,1505.2,326.4,-0.7,1.8,2471.069,13.28,0.048,278.3
2022-08-04T00:22:03,42.805,6.029,-0.068,0.013,-0.023,101.0,101.0,102.0,13.4,1505.2,330.7,-0.8,1.8,2471.065,13.28,0.069,280.8
2022-08-04T00:25:03,42.805,6.029,-0.065,0.006,-0.05,100.0,104.0,102.0,13.4,1505.2,329.6,-0.7,1.8,2471.027,13.28,0.065,275.3
2022-08-04T00:28:03,42.805,6.029,-0.037,0.01,-0.03,102.0,102.0,101.0,13.4,1505.2,320.6,-0.8,1.8,2471.062,13.29,0.038,285.1
2022-08-04T00:31:03,42.805,6.029,-0.027,0.01,-0.015,103.0,103.0,100.0,13.4,1505.2,331.7,-0.7,1.8,2471.027,13.29,0.028,290.3
2022-08-04T00:34:03,42.805,6.029,-0.022,0.001,-0.015,102.0,100.0,101.0,13.4,1505.2,324.5,-0.8,1.8,2471.005,13.29,0.022,272.6
2022-08-04T00:37:03,42.805,6.029,-0.06,0.024,-0.027,102.0,101.0,102.0,13.4,1505.2,329.4,-0.8,1.8,2471.006,13.29,0.064,291.8
2022-08-04T00:40:03,42.805,6.029,-0.033,0.015,-0.029,101.0,102.0,101.0,13.4,1505.2,320.6,-0.7,1.8,2471.042,13.29,0.036,294.4
2022-08-04T00:43:03,42.805,6.029,-0.052,0.005,-0.065,101.0,102.0,101.0,13.3,1505.2,332.9,-0.7,1.8,2471.014,13.28,0.052,275.5
2022-08-04T00:46:03,42.805,6.029,-0.045,0.028,-0.017,103.0,101.0,102.0,13.4,1505.2,333.1,-0.7,1.8,2471.026,13.29,0.053,301.9
2022-08-04T00:49:03,42.805,6.029,-0.044,0.006,-0.028,101.0,101.0,101.0,13.4,1505.2,327.1,-0.8,1.8,2470.999,13.29,0.044,277.8
2022-08-04T00:52:03,42.805,6.029,-0.044,0.009,-0.036,102.0,102.0,100.0,13.4,1505.2,320.0,-0.8,1.8,2471.023,13.28,0.044,281.6
2022-08-04T00:55:03,42.805,6.029,-0.025,-0.011,-0.034,101.0,102.0,101.0,13.4,1505.2,326.9,-0.8,1.8,2471.032,13.28,0.027,246.3
2022-08-04T00:58:03,42.805,6.029,-0.041,-0.002,-0.032,102.0,102.0,101.0,13.4,1505.2,323.8,-0.7,1.8,2471.016,13.28,0.041,267.2
2022-08-04T01:04:03,42.805,6.029,0.001,-0.031,-0.078,103.0,103.0,102.0,13.4,1505.2,318.6,-0.8,1.8,2471.035,13.28,0.031,178.2
2022-08-04T01:07:03,42.805,6.029,-0.044,0.02,-0.006,101.0,101.0,102.0,13.3,1505.2,325.3,-0.8,1.8,2471.037,13.28,0.048,294.4
2022-08-04T01:10:03,42.805,6.029,-0.051,-0.002,-0.018,100.0,100.0,101.0,13.4,1505.2,324.0,-0.7,1.8,2471.031,13.28,0.051,267.8
2022-08-04T01:13:03,42.805,6.029,-0.049,0.001,-0.008,102.0,101.0,101.0,13.4,1505.2,320.9,-0.8,1.8,2471.019,13.28,0.049,271.2
2022-08-04T01:16:03,42.805,6.029,-0.052,0.016,-0.018,103.0,103.0,100.0,13.4,1505.2,328.2,-0.8,1.8,2471.034,13.28,0.054,287.1
2022-08-04T01:19:03,42.805,6.029,-0.052,-0.008,-0.061,103.0,102.0,100.0,13.4,1505.2,322.3,-0.8,1.8,2471.022,13.28,0.052,261.3
2022-08-04T01:22:03,42.805,6.029,-0.039,0.008,-0.029,102.0,103.0,100.0,13.3,1505.2,321.7,-0.7,1.8,2471.046,13.28,0.039,281.6
2022-08-04T01:25:03,42.805,6.029,-0.045,-0.003,-0.045,101.0,102.0,101.0,13.3,1505.2,324.8,-0.8,1.8,2471.006,13.29,0.045,266.2
2022-08-04T01:28:03,42.805,6.029,-0.037,-0.013,-0.012,103.0,102.0,99.0,13.3,1505.2,326.8,-0.8,1.8,2470.996,13.28,0.039,250.6
2022-08-04T01:31:03,42.805,6.029,-0.05,0.0,-0.041,103.0,102.0,100.0,13.4,1505.2,323.8,-0.8,1.8,2471.007,13.29,0.05,270.0
2022-08-04T01:34:03,42.805,6.029,-0.043,-0.005,-0.063,103.0,102.0,99.0,13.4,1505.2,325.3,-0.7,1.9,2470.961,13.28,0.043,263.4
2022-08-04T01:37:03,42.805,6.029,-0.032,0.009,-0.042,102.0,103.0,99.0,13.4,1505.2,328.3,-0.8,1.8,2471.01,13.28,0.033,285.7
2022-08-04T01:40:03,42.805,6.029,-0.046,-0.005,-0.025,102.0,101.0,101.0,13.4,1505.2,321.8,-0.8,1.8,2470.964,13.29,0.046,263.8
2022-08-04T01:43:03,42.805,6.029,-0.04,0.001,-0.018,101.0,102.0,101.0,13.4,1505.2,322.9,-0.7,1.8,2470.994,13.28,0.04,271.4
2022-08-04T01:46:03,42.805,6.029,-0.042,-0.019,-0.025,102.0,101.0,101.0,13.3,1505.2,319.9,-0.8,1.8,2470.982,13.29,0.046,245.7
2022-08-04T01:49:03,42.805,6.029,-0.04,0.008,-0.011,102.0,102.0,101.0,13.4,1505.2,329.3,-0.8,1.8,2471.033,13.28,0.04,281.3
2022-08-04T01:52:03,42.805,6.029,-0.038,0.017,-0.029,102.0,102.0,101.0,13.4,1505.2,334.4,-0.8,1.8,2471.014,13.28,0.041,294.1
2022-08-04T01:55:03,42.805,6.029,-0.055,0.014,0.011,101.0,101.0,100.0,13.4,1505.2,322.9,-0.7,1.8,2470.944,13.29,0.056,284.3
2022-08-04T01:58:03,42.805,6.029,-0.041,0.004,-0.038,101.0,102.0,99.0,13.4,1505.2,329.6,-0.8,1.8,2470.977,13.29,0.041,275.6
2022-08-04T02:04:03,42.805,6.029,-0.053,-0.004,-0.04,102.0,101.0,101.0,13.3,1505.2,321.8,-0.7,1.8,2471.027,13.28,0.053,265.7
2022-08-04T02:07:03,42.805,6.029,-0.047,0.004,-0.049,102.0,101.0,100.0,13.4,1505.2,324.1,-0.7,1.8,2471.017,13.28,0.047,274.9
2022-08-04T02:10:03,42.805,6.029,-0.052,-0.012,-0.017,102.0,101.0,101.0,13.4,1505.2,323.6,-0.7,1.8,2471.006,13.28,0.053,257.0
2022-08-04T02:13:03,42.805,6.029,-0.038,0.019,0.004,102.0,101.0,100.0,13.4,1505.2,327.1,-0.7,1.8,2470.984,13.28,0.042,296.6
2022-08-04T02:16:03,42.805,6.029,-0.035,0.003,-0.044,100.0,102.0,100.0,13.3,1505.2,324.7,-0.8,1.8,2470.994,13.28,0.035,274.9
2022-08-04T02:19:03,42.805,6.029,-0.058,-0.003,-0.024,101.0,103.0,98.0,13.4,1505.2,328.0,-0.8,1.8,2471.015,13.28,0.058,267.0
2022-08-04T02:22:03,42.805,6.029,-0.044,0.019,-0.011,102.0,102.0,100.0,13.4,1505.2,328.0,-0.7,1.8,2470.998,13.28,0.047,293.4
2022-08-04T02:25:03,42.805,6.029,-0.039,-0.005,-0.024,103.0,100.0,100.0,13.3,1505.2,327.9,-0.7,1.8,2470.965,13.28,0.039,262.7
2022-08-04T02:28:03,42.805,6.029,-0.058,-0.009,-0.05,101.0,100.0,102.0,13.4,1505.2,319.7,-0.8,1.8,2470.977,13.28,0.058,261.2
2022-08-04T02:31:03,42.805,6.029,-0.038,0.019,-0.042,102.0,103.0,101.0,13.4,1505.2,321.9,-0.8,1.8,2470.999,13.28,0.042,296.6
2022-08-04T02:34:03,42.805,6.029,-0.022,-0.009,-0.025,103.0,100.0,101.0,13.4,1505.2,321.3,-0.8,1.8,2470.96,13.28,0.023,247.8
2022-08-04T02:37:03,42.805,6.029,-0.029,0.009,-0.003,102.0,103.0,99.0,13.4,1505.2,330.4,-0.7,1.8,2470.984,13.28,0.03,287.2
2022-08-04T02:40:03,42.805,6.029,-0.045,0.009,-0.009,101.0,101.0,101.0,13.4,1505.2,328.7,-0.8,1.9,2470.932,13.29,0.045,281.3
2022-08-04T02:43:03,42.805,6.029,-0.031,0.013,-0.047,101.0,103.0,100.0,13.4,1505.2,333.6,-0.8,1.8,2471.001,13.28,0.033,292.7
2022-08-04T02:46:03,42.805,6.029,-0.062,0.012,-0.061,102.0,102.0,100.0,13.4,1505.2,330.1,-0.7,1.8,2470.941,13.28,0.063,281.0
2022-08-04T02:49:03,42.805,6.029,-0.068,0.017,-0.013,101.0,103.0,100.0,13.4,1505.2,333.4,-0.8,1.8,2470.951,13.28,0.07,284.0
2022-08-04T02:52:03,42.805,6.029,-0.037,-0.003,-0.014,102.0,102.0,100.0,13.4,1505.2,324.7,-0.7,1.8,2471.003,13.28,0.037,265.4
2022-08-04T02:55:03,42.805,6.029,-0.026,0.012,-0.011,102.0,102.0,101.0,13.3,1505.2,332.9,-0.7,1.8,2470.956,13.28,0.028,294.8
2022-08-04T02:58:03,42.805,6.029,-0.035,0.016,-0.038,101.0,103.0,100.0,13.4,1505.2,327.8,-0.8,1.8,2470.93,13.28,0.038,294.6
2022-08-04T03:04:03,42.805,6.029,-0.035,0.015,0.006,101.0,104.0,100.0,13.4,1505.2,325.1,-0.8,1.8,2471.036,13.28,0.038,293.2
2022-08-04T03:07:03,42.805,6.029,-0.041,-0.004,-0.043,101.0,103.0,101.0,13.3,1505.2,318.2,-0.8,1.8,2470.969,13.28,0.041,264.4
2022-08-04T03:10:03,42.805,6.029,-0.062,-0.002,-0.028,102.0,103.0,101.0,13.3,1505.2,322.0,-0.8,1.8,2470.959,13.28,0.062,268.2
2022-08-04T03:13:03,42.805,6.029,-0.029,0.001,-0.045,102.0,101.0,101.0,13.3,1505.2,318.4,-0.8,1.8,2470.959,13.28,0.029,272.0
2022-08-04T03:16:03,42.805,6.029,-0.022,0.02,-0.008,102.0,101.0,100.0,13.4,1505.2,323.3,-0.8,1.8,2470.965,13.28,0.029,312.3
2022-08-04T03:19:03,42.805,6.029,-0.04,0.007,-0.036,103.0,101.0,101.0,13.4,1505.2,327.2,-0.8,1.8,2470.959,13.28,0.04,279.9
2022-08-04T03:22:03,42.805,6.029,-0.023,-0.005,-0.027,101.0,102.0,101.0,13.4,1505.2,322.2,-0.8,1.8,2470.951,13.28,0.023,257.7
2022-08-04T03:25:03,42.805,6.029,-0.026,0.006,-0.03,101.0,102.0,100.0,13.4,1505.2,329.2,-0.7,1.9,2470.947,13.28,0.026,283.0
2022-08-04T03:28:03,42.805,6.029,-0.055,0.011,-0.011,102.0,103.0,101.0,13.3,1505.2,329.6,-0.8,1.8,2470.964,13.28,0.056,281.3
2022-08-04T03:31:03,42.805,6.029,-0.022,0.009,-0.019,102.0,102.0,101.0,13.4,1505.2,325.7,-0.8,1.8,2470.941,13.29,0.023,292.2
2022-08-04T03:34:03,42.805,6.029,-0.054,0.001,-0.021,101.0,101.0,101.0,13.3,1505.2,327.9,-0.8,1.8,2470.943,13.29,0.054,271.1
2022-08-04T03:37:03,42.805,6.029,-0.044,0.011,-0.007,102.0,102.0,100.0,13.4,1505.2,324.8,-0.7,1.8,2470.952,13.28,0.045,284.0
2022-08-04T03:40:03,42.805,6.029,-0.054,0.005,-0.044,101.0,101.0,101.0,13.4,1505.2,331.8,-0.7,1.8,2470.917,13.28,0.054,275.3
2022-08-04T03:43:03,42.805,6.029,-0.052,-0.013,-0.036,103.0,102.0,101.0,13.4,1505.2,321.1,-0.7,1.9,2470.961,13.28,0.053,256.0
2022-08-04T03:46:03,42.805,6.029,-0.017,0.002,-0.023,100.0,102.0,102.0,13.4,1505.2,329.0,-0.8,1.8,2470.911,13.28,0.017,276.7
2022-08-04T03:49:03,42.805,6.029,-0.058,0.019,-0.05,102.0,103.0,101.0,13.4,1505.2,326.6,-0.8,1.8,2470.925,13.28,0.061,288.1
2022-08-04T03:52:03,42.805,6.029,-0.075,0.01,-0.018,101.0,102.0,100.0,13.3,1505.2,325.9,-0.8,1.8,2470.897,13.29,0.075,277.6
2022-08-04T03:55:03,42.805,6.029,-0.058,0.008,-0.042,102.0,101.0,100.0,13.4,1505.2,328.2,-0.8,1.8,2470.927,13.28,0.058,277.8
2022-08-04T03:58:03,42.805,6.029,-0.049,0.022,-0.013,102.0,102.0,101.0,13.4,1505.2,322.1,-0.8,1.8,2470.921,13.28,0.053,294.2
2022-08-04T04:04:03,42.805,6.029,-0.066,0.005,-0.048,101.0,102.0,100.0,13.4,1505.2,325.4,-0.8,1.8,2470.93,13.28,0.066,274.3
2022-08-04T04:07:03,42.805,6.029,-0.046,0.018,-0.026,102.0,101.0,101.0,13.4,1505.2,328.0,-0.8,1.8,2470.923,13.28,0.049,291.4
2022-08-04T04:10:03,42.805,6.029,-0.043,0.011,-0.033,102.0,101.0,100.0,13.4,1505.2,328.7,-0.7,1.8,2470.948,13.28,0.044,284.3
2022-08-04T04:13:03,42.805,6.029,-0.059,0.014,-0.025,102.0,103.0,101.0,13.3,1505.2,326.1,-0.8,1.8,2470.947,13.28,0.06,283.3
2022-08-04T04:16:03,42.805,6.029,-0.057,0.021,-0.026,102.0,102.0,100.0,13.4,1505.2,332.9,-0.8,1.8,2470.956,13.28,0.06,290.2
2022-08-04T04:19:03,42.805,6.029,-0.064,0.018,-0.014,102.0,102.0,101.0,13.3,1505.2,322.7,-0.7,1.8,2470.948,13.28,0.066,285.7
2022-08-04T04:22:03,42.805,6.029,-0.062,0.034,-0.014,102.0,102.0,101.0,13.4,1505.2,326.3,-0.8,1.8,2470.946,13.28,0.07,298.7
2022-08-04T04:25:03,42.805,6.029,-0.034,-0.005,-0.023,101.0,101.0,100.0,13.4,1505.2,320.3,-0.7,1.8,2470.936,13.28,0.034,261.6
2022-08-04T04:28:03,42.805,6.029,-0.012,0.016,-0.035,101.0,102.0,100.0,13.4,1505.2,330.6,-0.8,1.8,2470.904,13.28,0.02,323.1
2022-08-04T04:31:03,42.805,6.029,-0.081,0.002,-0.034,102.0,103.0,100.0,13.4,1505.2,322.3,-0.7,1.9,2470.922,13.28,0.081,271.4
2022-08-04T04:34:03,42.805,6.029,-0.063,0.018,0.016,102.0,102.0,100.0,13.4,1505.2,325.4,-0.8,1.8,2470.898,13.28,0.065,285.9
2022-08-04T04:37:03,42.805,6.029,-0.053,0.02,0.022,102.0,102.0,101.0,13.4,1505.2,328.6,-0.8,1.8,2470.918,13.28,0.056,290.7
2022-08-04T04:40:03,42.805,6.029,-0.023,0.007,-0.037,102.0,102.0,100.0,13.3,1505.2,328.7,-0.8,1.8,2470.907,13.28,0.024,286.9
2022-08-04T04:43:03,42.805,6.029,-0.053,0.036,-0.034,102.0,101.0,101.0,13.3,1505.2,332.9,-0.8,1.8,2470.943,13.29,0.064,304.2
2022-08-04T04:46:03,42.805,6.029,-0.024,-0.01,-0.043,102.0,102.0,100.0,13.4,1505.2,330.1,-0.7,1.8,2470.912,13.28,0.026,247.4
2022-08-04T04:49:03,42.805,6.029,-0.043,0.008,-0.04,101.0,102.0,100.0,13.4,1505.2,328.9,-0.7,1.8,2470.918,13.28,0.043,280.5
2022-08-04T04:52:03,42.805,6.029,-0.044,0.005,-0.024,102.0,102.0,100.0,13.4,1505.2,331.9,-0.7,1.8,2470.9,13.29,0.044,276.5
2022-08-04T04:55:03,42.805,6.029,-0.04,-0.001,-0.058,104.0,102.0,100.0,13.4,1505.2,323.1,-0.8,1.8,2470.906,13.28,0.04,268.6
2022-08-04T04:58:03,42.805,6.029,-0.048,0.014,-0.038,103.0,102.0,100.0,13.4,1505.2,333.1,-0.8,1.8,2470.885,13.29,0.05,286.3
2022-08-04T05:04:03,42.805,6.029,-0.072,-0.008,-0.032,102.0,101.0,101.0,13.4,1505.2,318.5,-0.8,1.8,2470.925,13.28,0.072,263.7
2022-08-04T05:07:03,42.805,6.029,-0.017,0.005,-0.023,100.0,102.0,101.0,13.3,1505.2,324.2,-0.8,1.8,2470.963,13.28,0.017,286.4
2022-08-04T05:10:03,42.805,6.029,-0.042,0.0,-0.017,102.0,103.0,101.0,13.3,1505.2,322.0,-0.7,1.8,2470.937,13.28,0.042,270.0
2022-08-04T05:13:03,42.805,6.029,-0.056,0.028,-0.031,101.0,102.0,100.0,13.4,1505.2,331.3,-0.8,1.8,2470.926,13.28,0.062,296.6
2022-08-04T05:16:03,42.805,6.029,-0.075,0.002,-0.041,102.0,102.0,101.0,13.4,1505.2,321.6,-0.8,1.8,2470.918,13.28,0.075,271.5
2022-08-04T05:19:03,42.805,6.029,-0.061,0.012,-0.036,103.0,102.0,100.0,13.4,1505.2,327.1,-0.8,1.8,2470.949,13.28,0.062,281.1
2022-08-04T05:22:03,42.805,6.029,-0.048,0.017,-0.016,102.0,102.0,100.0,13.3,1505.2,329.7,-0.7,1.8,2470.897,13.28,0.05,289.5
2022-08-04T05:25:03,42.805,6.029,-0.043,0.007,-0.014,102.0,102.0,101.0,13.3,1505.2,325.4,-0.7,1.8,2470.886,13.28,0.043,279.2
2022-08-04T05:28:03,42.805,6.029,-0.058,0.009,-0.013,101.0,102.0,100.0,13.4,1505.2,326.6,-0.7,1.8,2470.865,13.28,0.058,278.8
2022-08-04T05:31:03,42.805,6.029,-0.044,0.005,-0.044,102.0,102.0,101.0,13.4,1505.2,325.5,-0.8,1.8,2470.87,13.28,0.044,276.5
2022-08-04T05:34:03,42.805,6.029,-0.054,0.002,-0.055,101.0,102.0,102.0,13.4,1505.2,323.6,-0.8,1.8,2470.909,13.28,0.054,272.1
2022-08-04T05:37:03,42.805,6.029,-0.06,0.012,-0.035,103.0,102.0,102.0,13.4,1505.2,319.8,-0.7,1.9,2470.892,13.29,0.061,281.3
2022-08-04T05:40:03,42.805,6.029,-0.042,0.039,-0.03,103.0,100.0,100.0,13.4,1505.2,331.8,-0.8,1.8,2470.895,13.29,0.057,312.9
2022-08-04T05:43:03,42.805,6.029,-0.043,0.0,-0.032,103.0,101.0,100.0,13.4,1505.2,326.0,-0.8,1.8,2470.925,13.29,0.043,270.0
2022-08-04T05:46:03,42.805,6.029,-0.055,0.003,-0.043,102.0,101.0,101.0,13.4,1505.2,326.0,-0.7,1.8,2470.911,13.29,0.055,273.1
2022-08-04T05:49:03,42.805,6.029,-0.056,-0.004,-0.019,102.0,102.0,102.0,13.4,1505.2,323.5,-0.8,1.8,2470.901,13.28,0.056,265.9
2022-08-04T05:52:03,42.805,6.029,-0.053,0.007,-0.057,102.0,102.0,100.0,13.4,1505.2,329.2,-0.7,1.8,2470.867,13.29,0.053,277.5
2022-08-04T05:55:03,42.805,6.029,-0.045,0.007,-0.027,102.0,103.0,100.0,13.4,1505.2,329.4,-0.8,1.8,2470.908,13.28,0.045,278.8
2022-08-04T05:58:03,42.805,6.029,-0.04,0.016,0.008,103.0,101.0,101.0,13.4,1505.2,327.4,-0.8,1.8,2470.885,13.29,0.043,291.8
2022-08-04T06:04:03,42.805,6.029,-0.053,0.006,-0.018,102.0,102.0,101.0,13.4,1505.2,331.8,-0.8,1.8,2470.965,13.28,0.053,276.5
2022-08-04T06:07:03,42.805,6.029,-0.045,-0.009,-0.067,103.0,102.0,101.0,13.4,1505.2,330.2,-0.7,1.8,2470.913,13.28,0.045,258.7
2022-08-04T06:10:03,42.805,6.029,-0.071,0.016,-0.049,102.0,101.0,100.0,13.4,1505.2,323.8,-0.7,1.8,2470.908,13.28,0.072,282.7
2022-08-04T06:13:03,42.805,6.029,-0.051,0.021,-0.023,102.0,102.0,100.0,13.4,1505.2,332.2,-0.7,1.8,2470.904,13.28,0.055,292.4
2022-08-04T06:16:03,42.805,6.029,-0.07,0.005,-0.052,102.0,102.0,101.0,13.4,1505.2,332.1,-0.8,1.8,2470.909,13.28,0.07,274.1
2022-08-04T06:19:03,42.805,6.029,-0.025,0.018,-0.023,102.0,101.0,101.0,13.3,1505.2,327.3,-0.8,1.8,2470.899,13.28,0.03,305.8
2022-08-04T06:22:03,42.805,6.029,-0.068,0.026,-0.014,103.0,102.0,101.0,13.4,1505.2,325.2,-0.7,1.8,2470.865,13.29,0.072,290.9
2022-08-04T06:25:03,42.805,6.029,-0.055,0.008,-0.037,102.0,102.0,101.0,13.4,1505.2,326.3,-0.8,1.8,2470.882,13.29,0.055,278.3
2022-08-04T06:28:03,42.805,6.029,-0.026,0.026,-0.018,101.0,102.0,101.0,13.4,1505.2,323.8,-0.7,1.8,2470.917,13.29,0.036,315.0
2022-08-04T06:31:03,42.805,6.029,-0.06,-0.003,-0.076,101.0,102.0,100.0,13.4,1505.2,327.6,-0.7,1.8,2470.889,13.28,0.06,267.1
2022-08-04T06:34:03,42.805,6.029,-0.04,-0.005,-0.044,102.0,102.0,100.0,13.4,1505.2,328.9,-0.8,1.8,2470.904,13.28,0.04,262.9
2022-08-04T06:37:03,42.805,6.029,-0.057,0.024,-0.035,103.0,101.0,101.0,13.4,1505.2,318.8,-0.7,1.8,2470.872,13.29,0.061,292.8
2022-08-04T06:40:03,42.805,6.029,-0.029,0.002,-0.043,101.0,102.0,100.0,13.4,1505.2,323.3,-0.7,1.8,2470.888,13.29,0.029,273.9
2022-08-04T06:43:03,42.805,6.029,-0.053,0.001,-0.056,102.0,102.0,100.0,13.4,1505.2,319.2,-0.8,1.8,2470.895,13.28,0.053,271.1
2022-08-04T06:46:03,42.805,6.029,-0.067,0.018,-0.02,101.0,101.0,100.0,13.4,1505.2,325.4,-0.8,1.8,2470.939,13.28,0.069,285.0
2022-08-04T06:49:03,42.805,6.029,-0.059,-0.002,-0.039,102.0,102.0,100.0,13.3,1505.2,328.4,-0.8,1.8,2470.856,13.29,0.059,268.1
2022-08-04T06:52:03,42.805,6.029,-0.041,0.011,0.0,102.0,101.0,101.0,13.3,1505.2,321.3,-0.8,1.8,2470.882,13.29,0.042,285.0
2022-08-04T06:55:03,42.805,6.029,-0.05,0.004,-0.027,102.0,103.0,99.0,13.4,1505.2,318.3,-0.8,1.8,2470.887,13.29,0.05,274.6
2022-08-04T06:58:03,42.805,6.029,-0.053,-0.002,-0.037,102.0,102.0,100.0,13.3,1505.2,327.4,-0.8,1.8,2470.879,13.29,0.053,267.8
2022-08-04T07:04:03,42.805,6.029,-0.044,0.005,0.024,101.0,102.0,101.0,13.4,1505.2,320.0,-0.7,1.8,2470.906,13.28,0.044,276.5
2022-08-04T07:07:03,42.805,6.029,-0.025,0.02,-0.016,103.0,99.0,102.0,13.4,1505.2,330.5,-0.8,1.8,2470.889,13.28,0.032,308.7
2022-08-04T07:10:03,42.805,6.029,-0.039,0.011,-0.028,101.0,102.0,103.0,13.3,1505.2,329.2,-0.8,1.8,2470.897,13.28,0.04,285.7
2022-08-04T07:13:03,42.805,6.029,-0.027,0.007,-0.032,102.0,102.0,100.0,13.4,1505.2,330.3,-0.8,1.8,2470.966,13.28,0.027,284.5
2022-08-04T07:16:03,42.805,6.029,-0.059,0.018,-0.024,102.0,102.0,100.0,13.4,1505.2,321.7,-0.8,1.8,2470.93,13.28,0.061,287.0
2022-08-04T07:19:03,42.805,6.029,-0.065,-0.004,-0.044,101.0,103.0,101.0,13.3,1505.2,326.0,-0.8,1.8,2470.889,13.28,0.065,266.5
2022-08-04T07:22:03,42.805,6.029,-0.047,0.033,-0.021,101.0,102.0,100.0,13.3,1505.2,331.2,-0.8,1.8,2470.912,13.28,0.057,305.1
2022-08-04T07:25:03,42.805,6.029,-0.064,-0.003,-0.031,103.0,102.0,101.0,13.4,1505.2,323.1,-0.8,1.8,2470.898,13.29,0.064,267.3
2022-08-04T07:28:03,42.805,6.029,-0.062,0.007,-0.04,102.0,102.0,100.0,13.4,1505.2,324.8,-0.8,1.8,2470.91,13.29,0.062,276.4
2022-08-04T07:31:03,42.805,6.029,-0.038,-0.018,-0.037,103.0,102.0,100.0,13.4,1505.2,318.4,-0.8,1.8,2470.911,13.29,0.042,244.7
2022-08-04T07:34:03,42.805,6.029,-0.036,0.019,-0.041,100.0,101.0,102.0,13.3,1505.2,324.2,-0.8,1.8,2470.901,13.29,0.04,297.8
2022-08-04T07:37:03,42.805,6.029,-0.051,0.002,-0.041,103.0,101.0,100.0,13.3,1505.2,320.4,-0.7,1.8,2470.891,13.28,0.051,272.2
2022-08-04T07:40:03,42.805,6.029,-0.024,-0.006,-0.013,102.0,102.0,100.0,13.4,1505.2,328.4,-0.7,1.8,2470.926,13.29,0.024,256.0
2022-08-04T07:43:03,42.805,6.029,-0.058,-0.021,-0.037,101.0,102.0,101.0,13.4,1505.2,329.2,-0.8,1.8,2470.913,13.29,0.061,250.1
2022-08-04T07:46:03,42.805,6.029,-0.034,0.005,-0.005,101.0,102.0,100.0,13.4,1505.2,323.5,-0.8,1.8,2470.905,13.28,0.034,278.4
2022-08-04T07:49:03,42.805,6.029,-0.05,0.017,0.01,102.0,102.0,101.0,13.4,1505.2,322.0,-0.8,1.8,2470.913,13.29,0.052,288.8
2022-08-04T07:52:03,42.805,6.029,-0.031,0.012,-0.019,102.0,102.0,101.0,13.4,1505.2,328.1,-0.8,1.9,2470.912,13.29,0.033,291.2
2022-08-04T07:55:03,42.805,6.029,-0.032,0.025,-0.026,104.0,101.0,101.0,13.4,1505.2,330.7,-0.7,1.8,2470.898,13.29,0.04,308.0
2022-08-04T07:58:03,42.805,6.029,-0.054,0.006,-0.034,104.0,102.0,100.0,13.4,1505.2,325.7,-0.7,1.8,2470.907,13.29,0.054,276.3
2022-08-04T08:04:03,42.805,6.029,-0.065,0.015,-0.02,102.0,102.0,100.0,13.4,1505.2,321.0,-0.7,1.8,2470.984,13.28,0.066,283.0
2022-08-04T08:07:03,42.805,6.029,-0.053,0.008,-0.036,102.0,101.0,101.0,13.4,1505.2,325.4,-0.7,1.8,2470.958,13.28,0.053,278.6
2022-08-04T08:10:03,42.805,6.029,-0.038,0.012,-0.026,101.0,102.0,100.0,13.3,1505.2,326.7,-0.8,1.8,2470.905,13.28,0.039,287.5
2022-08-04T08:13:03,42.805,6.029,-0.02,-0.002,-0.041,102.0,102.0,101.0,13.4,1505.2,318.6,-0.8,1.8,2470.911,13.28,0.02,264.3
2022-08-04T08:16:03,42.805,6.029,-0.029,-0.01,-0.032,101.0,103.0,101.0,13.4,1505.2,323.8,-0.8,1.8,2470.905,13.28,0.03,251.0
2022-08-04T08:19:03,42.805,6.029,-0.063,0.015,-0.041,102.0,103.0,100.0,13.4,1505.2,325.8,-0.8,1.8,2470.927,13.28,0.064,283.4
2022-08-04T08:22:03,42.805,6.029,-0.023,0.0,-0.023,102.0,101.0,101.0,13.3,1505.2,332.1,-0.8,1.8,2470.963,13.28,0.023,270.0
2022-08-04T08:25:03,42.805,6.029,-0.062,0.036,-0.045,102.0,101.0,101.0,13.3,1505.2,332.4,-0.7,1.8,2470.969,13.29,0.071,300.1
2022-08-04T08:28:03,42.805,6.029,-0.052,0.012,-0.023,101.0,101.0,102.0,13.4,1505.2,326.6,-0.8,1.9,2470.961,13.28,0.053,283.0
2022-08-04T08:31:03,42.805,6.029,-0.058,0.009,-0.022,101.0,102.0,100.0,13.4,1505.2,325.3,-0.7,1.8,2470.947,13.28,0.058,278.8
2022-08-04T08:34:03,42.805,6.029,-0.055,0.031,-0.026,102.0,102.0,100.0,13.3,1505.2,325.1,-0.8,1.8,2470.942,13.29,0.063,299.4
2022-08-04T08:37:03,42.805,6.029,-0.063,0.017,-0.036,102.0,100.0,100.0,13.4,1505.2,331.0,-0.8,1.8,2470.952,13.28,0.065,285.1
2022-08-04T08:40:03,42.805,6.029,-0.038,0.011,-0.023,102.0,100.0,100.0,13.3,1505.2,328.1,-0.8,1.8,2470.933,13.28,0.039,286.1
2022-08-04T08:43:03,42.805,6.029,-0.044,0.018,-0.051,102.0,101.0,101.0,13.4,1505.2,327.9,-0.7,1.9,2470.952,13.28,0.047,292.2
2022-08-04T08:46:03,42.805,6.029,-0.026,0.011,-0.038,101.0,102.0,101.0,13.4,1505.2,332.6,-0.7,1.8,2470.955,13.28,0.028,292.9
2022-08-04T08:49:03,42.805,6.029,-0.059,-0.002,-0.052,102.0,102.0,101.0,13.3,1505.2,327.7,-0.7,1.8,2470.942,13.29,0.059,268.1
2022-08-04T08:52:03,42.805,6.029,-0.048,0.007,-0.022,101.0,101.0,101.0,13.4,1505.2,329.8,-0.7,1.8,2470.979,13.29,0.048,278.3
2022-08-04T08:55:03,42.805,6.029,-0.065,0.018,-0.022,102.0,102.0,100.0,13.3,1505.2,323.4,-0.7,1.8,2470.951,13.29,0.067,285.5
2022-08-04T08:58:03,42.805,6.029,-0.053,0.036,-0.05,103.0,102.0,100.0,13.4,1505.2,324.2,-0.7,1.8,2470.961,13.29,0.064,304.2
2022-08-04T09:04:03,42.805,6.029,-0.063,0.003,-0.065,101.0,102.0,101.0,13.4,1505.2,320.6,-0.7,1.8,2470.989,13.28,0.063,272.7
2022-08-04T09:07:03,42.805,6.029,-0.058,0.012,-0.034,102.0,101.0,100.0,13.3,1505.2,319.4,-0.8,1.8,2470.992,13.28,0.059,281.7
2022-08-04T09:10:03,42.805,6.029,-0.05,-0.003,-0.018,101.0,102.0,101.0,13.4,1505.2,327.2,-0.8,1.8,2470.977,13.28,0.05,266.6
2022-08-04T09:13:03,42.805,6.029,-0.054,0.014,-0.028,102.0,101.0,100.0,13.4,1505.2,327.0,-0.7,1.8,2471.024,13.28,0.055,284.5
2022-08-04T09:16:03,42.805,6.029,-0.05,0.009,-0.024,102.0,102.0,101.0,13.3,1505.2,325.0,-0.8,1.8,2470.989,13.28,0.05,280.2
2022-08-04T09:19:03,42.805,6.029,-0.064,0.021,-0.007,102.0,101.0,101.0,13.4,1505.2,319.2,-0.7,1.8,2470.934,13.28,0.067,288.2
2022-08-04T09:22:03,42.805,6.029,-0.013,0.014,0.001,101.0,102.0,101.0,13.4,1505.2,322.6,-0.7,1.8,2470.994,13.29,0.019,317.1
2022-08-04T09:25:03,42.805,6.029,-0.038,0.025,-0.026,104.0,101.0,102.0,13.4,1505.2,322.7,-0.7,1.8,2470.996,13.29,0.045,303.3
2022-08-04T09:28:03,42.805,6.029,-0.029,0.016,0.0,102.0,101.0,101.0,13.4,1505.2,331.0,-0.7,1.9,2470.944,13.29,0.033,298.9
2022-08-04T09:31:03,42.805,6.029,-0.044,0.017,-0.014,101.0,102.0,100.0,13.4,1505.2,328.2,-0.8,1.8,2470.945,13.29,0.047,291.1
2022-08-04T09:34:03,42.805,6.029,-0.055,0.016,-0.032,102.0,103.0,101.0,13.4,1505.2,325.3,-0.8,1.8,2470.966,13.29,0.057,286.2
2022-08-04T09:37:03,42.805,6.029,-0.064,-0.004,-0.029,102.0,102.0,100.0,13.4,1505.2,329.5,-0.8,1.8,2471.005,13.29,0.064,266.4
2022-08-04T09:40:03,42.805,6.029,-0.024,0.011,-0.014,103.0,103.0,102.0,13.4,1505.2,328.7,-0.7,1.8,2471.022,13.29,0.026,294.6
2022-08-04T09:43:03,42.805,6.029,-0.022,0.009,-0.002,102.0,102.0,102.0,13.4,1505.2,327.8,-0.7,1.8,2471.008,13.29,0.023,292.2
2022-08-04T09:46:03,42.805,6.029,-0.024,0.012,0.015,102.0,102.0,100.0,13.4,1505.2,323.6,-0.8,1.8,2470.988,13.29,0.026,296.6
2022-08-04T09:49:03,42.805,6.029,-0.032,0.014,-0.025,102.0,102.0,101.0,13.3,1505.2,320.3,-0.7,1.8,2470.976,13.29,0.034,293.6
2022-08-04T09:52:03,42.805,6.029,-0.042,0.014,-0.046,102.0,101.0,100.0,13.4,1505.2,325.5,-0.7,1.8,2470.976,13.29,0.044,288.4